When you browse on this site, cookies collect data to enhance your experience and personalize the content and advertising you see.
Visit our Privacy Policy to learn more. By continuing to use the site, you agree to this use of cookies and data.
  • In Switzerland
  • List of Countries
  • For 7 days
  • Water Temperature
  • Weather Map
  • Weather Widgets
  • user-avatar
    Login

    Hourly Weather Tykhe

    Today, 7 April, Tuesday

    Time Temperature Precipitation Wind Pressure Humidity
    00:00 +5°C° 0 mm 1 mps 762 mmHg 55%
    01:00 +4°C° 0 mm 1 mps 762 mmHg 58%
    02:00 +4°C° 0 mm 1 mps 762 mmHg 71%
    03:00 +4°C° 0 mm 1 mps 762 mmHg 75%
    04:00 +4°C° 0 mm 1 mps 763 mmHg 78%
    05:00 +4°C° 0 mm 1 mps 763 mmHg 81%
    06:00 +4°C° 0 mm 2 mps 763 mmHg 75%
    07:00 +4°C° 0 mm 2 mps 764 mmHg 70%
    08:00 +5°C° 0 mm 2 mps 764 mmHg 64%
    09:00 +6°C° 0 mm 2 mps 764 mmHg 57%
    10:00 +7°C° 0 mm 2 mps 764 mmHg 49%
    11:00 +8°C° 0 mm 2 mps 764 mmHg 42%
    12:00 +9°C° 0 mm 2 mps 764 mmHg 39%
    13:00 +9°C° 0 mm 2 mps 764 mmHg 37%
    14:00 +10°C° 0 mm 3 mps 763 mmHg 34%
    15:00 +10°C° 0 mm 2 mps 763 mmHg 35%
    16:00 +10°C° 0 mm 2 mps 763 mmHg 37%
    17:00 +10°C° 0 mm 2 mps 763 mmHg 38%
    18:00 +10°C° 0 mm 1 mps 763 mmHg 41%
    19:00 +9°C° 0 mm 1 mps 763 mmHg 45%
    20:00 +8°C° 0 mm 1 mps 763 mmHg 48%
    21:00 +7°C° 0 mm 1 mps 763 mmHg 50%
    22:00 +6°C° 0 mm 2 mps 762 mmHg 52%
    23:00 +5°C° 0 mm 2 mps 762 mmHg 53%

    Tomorrow, 8 April, Wednesday

    Time Temperature Precipitation Wind Pressure Humidity
    00:00 +5°C° 0 mm 2 mps 762 mmHg 55%
    01:00 +4°C° 0 mm 3 mps 762 mmHg 57%
    02:00 +3°C° 0 mm 3 mps 762 mmHg 58%
    03:00 +3°C° 0 mm 3 mps 761 mmHg 61%
    04:00 +3°C° 0 mm 3 mps 761 mmHg 63%
    05:00 +3°C° 0 mm 4 mps 760 mmHg 66%
    06:00 +5°C° 0 mm 5 mps 760 mmHg 62%
    07:00 +6°C° 0 mm 5 mps 759 mmHg 59%
    08:00 +8°C° 0 mm 6 mps 758 mmHg 55%
    09:00 +10°C° 0 mm 7 mps 758 mmHg 51%
    10:00 +11°C° 0 mm 7 mps 757 mmHg 47%
    11:00 +13°C° 0 mm 8 mps 756 mmHg 43%
    12:00 +15°C° 0 mm 8 mps 755 mmHg 41%
    13:00 +15°C° 0 mm 8 mps 755 mmHg 38%
    14:00 +16°C° 0 mm 8 mps 754 mmHg 35%
    15:00 +16°C° 0 mm 7 mps 753 mmHg 40%
    16:00 +15°C° 0 mm 6 mps 753 mmHg 44%
    17:00 +14°C° 0 mm 5 mps 753 mmHg 49%
    18:00 +13°C° 0 mm 4 mps 753 mmHg 55%
    19:00 +11°C° 0 mm 4 mps 753 mmHg 62%
    20:00 +9°C° 0 mm 3 mps 753 mmHg 68%
    21:00 +9°C° 0 mm 3 mps 753 mmHg 71%
    22:00 +8°C° 0 mm 3 mps 753 mmHg 74%
    23:00 +7°C° 0 mm 3 mps 753 mmHg 78%

    Day after tomorrow, 9 April, Thursday

    Time Temperature Precipitation Wind Pressure Humidity
    00:00 +7°C° 0 mm 3 mps 753 mmHg 81%
    01:00 +5°C° 0 mm 3 mps 753 mmHg 84%
    02:00 +6°C° 0 mm 2 mps 753 mmHg 87%
    03:00 +5°C° 0 mm 2 mps 753 mmHg 89%
    04:00 +5°C° 0 mm 2 mps 754 mmHg 91%
    05:00 +5°C° 0 mm 2 mps 754 mmHg 93%
    06:00 +6°C° 0 mm 2 mps 754 mmHg 86%
    07:00 +8°C° 0 mm 2 mps 754 mmHg 80%
    08:00 +9°C° 0 mm 2 mps 754 mmHg 73%
    09:00 +10°C° 0 mm 2 mps 753 mmHg 66%
    10:00 +13°C° 0 mm 2 mps 753 mmHg 60%
    11:00 +14°C° 0 mm 1 mps 753 mmHg 54%
    12:00 +14°C° 0 mm 1 mps 753 mmHg 50%
    13:00 +15°C° 0 mm 1 mps 752 mmHg 47%
    14:00 +16°C° 0 mm 1 mps 752 mmHg 44%
    15:00 +16°C° 0 mm 1 mps 751 mmHg 44%
    16:00 +16°C° 0 mm 1 mps 751 mmHg 43%
    17:00 +15°C° 0 mm 2 mps 751 mmHg 43%
    18:00 +14°C° 0 mm 2 mps 751 mmHg 47%
    19:00 +13°C° 0 mm 2 mps 751 mmHg 52%
    20:00 +12°C° 0 mm 2 mps 751 mmHg 56%
    21:00 +10°C° 0 mm 2 mps 750 mmHg 59%
    22:00 +10°C° 0 mm 2 mps 750 mmHg 63%
    23:00 +9°C° 0 mm 3 mps 750 mmHg 66%

    10 April, Friday

    Time Temperature Precipitation Wind Pressure Humidity
    00:00 +9°C° 0 mm 3 mps 750 mmHg 68%
    01:00 +8°C° 0 mm 3 mps 749 mmHg 70%
    02:00 +8°C° 0 mm 3 mps 749 mmHg 73%
    03:00 +7°C° 0 mm 3 mps 748 mmHg 73%
    04:00 +7°C° 0 mm 3 mps 748 mmHg 74%
    05:00 +7°C° 0 mm 3 mps 748 mmHg 74%
    06:00 +7°C° 0 mm 4 mps 748 mmHg 69%
    07:00 +10°C° 0 mm 4 mps 747 mmHg 63%
    08:00 +10°C° 0 mm 5 mps 747 mmHg 58%
    09:00 +13°C° 0 mm 5 mps 746 mmHg 52%
    10:00 +14°C° 0 mm 6 mps 746 mmHg 47%
    11:00 +16°C° 0 mm 6 mps 746 mmHg 41%
    12:00 +16°C° 0 mm 6 mps 745 mmHg 42%
    13:00 +16°C° 0 mm 6 mps 744 mmHg 42%
    14:00 +16°C° 0 mm 6 mps 744 mmHg 43%
    15:00 +14°C° 1.2 mm 6 mps 744 mmHg 57%
    16:00 +11°C° 1.2 mm 6 mps 744 mmHg 71%
    17:00 +9°C° 1.2 mm 7 mps 743 mmHg 85%
    18:00 +9°C° 0.5 mm 6 mps 744 mmHg 81%
    19:00 +8°C° 0.5 mm 5 mps 744 mmHg 78%
    20:00 +8°C° 0.5 mm 5 mps 745 mmHg 74%
    21:00 +7°C° 0 mm 5 mps 745 mmHg 74%
    22:00 +6°C° 0 mm 5 mps 745 mmHg 73%
    23:00 +5°C° 0 mm 6 mps 745 mmHg 72%

    11 April, Saturday

    Time Temperature Precipitation Wind Pressure Humidity
    00:00 +4°C° 0 mm 6 mps 746 mmHg 74%
    01:00 +3°C° 0 mm 5 mps 746 mmHg 75%
    02:00 +2°C° 0 mm 5 mps 746 mmHg 77%
    03:00 +2°C° 0 mm 5 mps 747 mmHg 76%
    04:00 +1°C° 0 mm 5 mps 747 mmHg 76%
    05:00 +1°C° 0 mm 5 mps 747 mmHg 76%
    06:00 +2°C° 0 mm 5 mps 748 mmHg 71%
    07:00 +3°C° 0 mm 6 mps 748 mmHg 67%
    08:00 +4°C° 0 mm 6 mps 748 mmHg 62%
    09:00 +5°C° 0 mm 7 mps 748 mmHg 57%
    10:00 +6°C° 0 mm 7 mps 749 mmHg 52%
    11:00 +8°C° 0 mm 7 mps 749 mmHg 47%
    12:00 +9°C° 0 mm 6 mps 749 mmHg 45%
    13:00 +9°C° 0 mm 6 mps 749 mmHg 43%
    14:00 +10°C° 0 mm 6 mps 749 mmHg 41%
    15:00 +9°C° 0 mm 6 mps 749 mmHg 42%
    16:00 +9°C° 0 mm 6 mps 750 mmHg 43%
    17:00 +8°C° 0 mm 6 mps 750 mmHg 44%
    18:00 +7°C° 0 mm 5 mps 750 mmHg 48%
    19:00 +6°C° 0 mm 5 mps 751 mmHg 52%
    20:00 +5°C° 0 mm 4 mps 752 mmHg 56%
    21:00 +4°C° 0 mm 4 mps 752 mmHg 58%
    22:00 +3°C° 0 mm 4 mps 752 mmHg 60%
    23:00 +3°C° 0 mm 3 mps 753 mmHg 62%

    12 April, Sunday

    Time Temperature Precipitation Wind Pressure Humidity
    00:00 +2°C° 0 mm 3 mps 753 mmHg 65%
    01:00 +2°C° 0 mm 3 mps 753 mmHg 68%
    02:00 +1°C° 0 mm 3 mps 754 mmHg 71%
    03:00 +1°C° 0 mm 3 mps 754 mmHg 74%
    04:00 0°C° 0 mm 3 mps 754 mmHg 76%
    05:00 0°C° 0 mm 3 mps 755 mmHg 79%
    06:00 +1°C° 0 mm 3 mps 755 mmHg 68%
    07:00 +3°C° 0 mm 3 mps 755 mmHg 58%
    08:00 +4°C° 0 mm 3 mps 756 mmHg 47%
    09:00 +5°C° 0 mm 3 mps 756 mmHg 41%
    10:00 +7°C° 0 mm 3 mps 756 mmHg 36%
    11:00 +8°C° 0 mm 3 mps 756 mmHg 31%
    12:00 +8°C° 0 mm 3 mps 756 mmHg 30%
    13:00 +9°C° 0 mm 2 mps 755 mmHg 29%
    14:00 +9°C° 0 mm 2 mps 755 mmHg 27%
    15:00 +9°C° 0 mm 2 mps 755 mmHg 28%
    16:00 +10°C° 0 mm 1 mps 755 mmHg 29%
    17:00 +10°C° 0 mm 1 mps 755 mmHg 29%
    18:00 +9°C° 0 mm 1 mps 755 mmHg 32%
    19:00 +8°C° 0 mm 1 mps 755 mmHg 35%
    20:00 +6°C° 0 mm 0 mps 755 mmHg 38%
    21:00 +7°C° 0 mm 1 mps 755 mmHg 40%
    22:00 +7°C° 0 mm 1 mps 755 mmHg 41%
    23:00 +5°C° 0 mm 2 mps 755 mmHg 43%
    Show more